timestamp,wind_dir_avg,wind_spd_max_dir,wind_spd_avg,wind_spd_gust,battery_voltage,lat,long
2018-12-24 00:00:00+00:00,300.0,301.0,9.45,10.38,,47.59359,-54.27349
2018-12-24 00:10:00+00:00,298.0,301.0,9.51,10.65,,47.59359,-54.27349
2018-12-24 00:20:00+00:00,293.0,295.0,9.55,10.44,,47.59359,-54.27349
2018-12-24 00:30:00+00:00,305.0,309.0,9.22,11.8,,47.59359,-54.27349
2018-12-24 00:40:00+00:00,303.0,295.0,9.41,10.68,,47.59359,-54.27349
2018-12-24 00:50:00+00:00,304.0,305.0,10.03,11.31,,47.59359,-54.27349
2018-12-24 01:00:00+00:00,297.0,301.0,10.37,12.07,,47.59359,-54.27349
2018-12-24 01:10:00+00:00,291.0,286.0,10.73,12.39,,47.59359,-54.27349
2018-12-24 01:20:00+00:00,296.0,299.0,9.24,11.2,,47.59359,-54.27349
2018-12-24 01:30:00+00:00,297.0,292.0,8.38,11.22,,47.59359,-54.27349
2018-12-24 01:40:00+00:00,295.0,301.0,9.54,11.38,,47.59359,-54.27349
2018-12-24 01:50:00+00:00,293.0,293.0,8.22,9.63,,47.59359,-54.27349
2018-12-24 02:00:00+00:00,296.0,290.0,9.41,10.98,,47.59359,-54.27349
2018-12-24 02:10:00+00:00,300.0,309.0,8.52,10.39,,47.59359,-54.27349
2018-12-24 02:20:00+00:00,291.0,300.0,7.29,8.66,,47.59359,-54.27349
2018-12-24 02:30:00+00:00,286.0,286.0,11.49,13.95,,47.59359,-54.27349
2018-12-24 02:40:00+00:00,296.0,300.0,9.67,11.53,,47.59359,-54.27349
2018-12-24 02:50:00+00:00,296.0,294.0,8.46,9.98,,47.59359,-54.27349
2018-12-24 03:00:00+00:00,301.0,304.0,8.52,10.5,,47.59359,-54.27349
2018-12-24 03:10:00+00:00,302.0,305.0,6.56,8.76,,47.59359,-54.27349
2018-12-24 03:20:00+00:00,300.0,303.0,9.67,11.6,,47.59359,-54.27349
2018-12-24 03:30:00+00:00,312.0,307.0,7.3,8.87,,47.59359,-54.27349
2018-12-24 03:40:00+00:00,309.0,307.0,7.11,8.79,,47.59359,-54.27349
2018-12-24 03:50:00+00:00,315.0,321.0,7.72,8.88,,47.59359,-54.27349
2018-12-24 04:00:00+00:00,319.0,321.0,8.96,10.23,,47.59359,-54.27349
2018-12-24 04:10:00+00:00,295.0,295.0,7.41,8.41,,47.59359,-54.27349
2018-12-24 04:20:00+00:00,310.0,309.0,6.28,7.14,,47.59359,-54.27349
2018-12-24 04:30:00+00:00,327.0,333.0,9.02,10.3,,47.59359,-54.27349
2018-12-24 04:40:00+00:00,312.0,319.0,11.43,13.04,,47.59359,-54.27349
2018-12-24 04:50:00+00:00,316.0,319.0,9.34,11.15,,47.59359,-54.27349
2018-12-24 05:00:00+00:00,308.0,310.0,7.93,9.75,,47.59359,-54.27349
2018-12-24 05:10:00+00:00,302.0,304.0,6.96,8.5,,47.59359,-54.27349
2018-12-24 05:20:00+00:00,302.0,309.0,7.4,9.49,,47.59359,-54.27349
2018-12-24 05:30:00+00:00,298.0,302.0,6.55,7.21,,47.59359,-54.27349
2018-12-24 05:40:00+00:00,296.0,301.0,6.83,8.88,,47.59359,-54.27349
2018-12-24 05:50:00+00:00,307.0,312.0,7.17,8.71,,47.59359,-54.27349
2018-12-24 06:00:00+00:00,302.0,310.0,5.21,6.53,,47.59359,-54.27349
2018-12-24 06:10:00+00:00,323.0,326.0,7.44,8.82,,47.59359,-54.27349
2018-12-24 06:20:00+00:00,307.0,309.0,5.27,6.6,,47.59359,-54.27349
2018-12-24 06:30:00+00:00,322.0,339.0,4.78,5.75,,47.59359,-54.27349
2018-12-24 06:40:00+00:00,327.0,330.0,5.64,6.93,,47.59359,-54.27349
2018-12-24 06:50:00+00:00,312.0,319.0,7.48,8.98,,47.59359,-54.27349
2018-12-24 07:00:00+00:00,317.0,320.0,7.69,9.56,,47.59359,-54.27349
2018-12-24 07:10:00+00:00,334.0,335.0,8.27,9.48,,47.59359,-54.27349
2018-12-24 07:20:00+00:00,321.0,322.0,7.78,9.32,,47.59359,-54.27349
2018-12-24 07:30:00+00:00,334.0,332.0,4.89,5.65,,47.59359,-54.27349
2018-12-24 07:40:00+00:00,317.0,317.0,4.35,6.9,,47.59359,-54.27349
2018-12-24 07:50:00+00:00,310.0,308.0,4.83,5.48,,47.59359,-54.27349
2018-12-24 08:00:00+00:00,319.0,322.0,5.9,6.96,,47.59359,-54.27349
2018-12-24 08:10:00+00:00,301.0,292.0,5.33,6.44,,47.59359,-54.27349
2018-12-24 08:20:00+00:00,307.0,307.0,5.21,6.99,,47.59359,-54.27349
2018-12-24 08:30:00+00:00,305.0,294.0,5.89,7.63,,47.59359,-54.27349
2018-12-24 08:40:00+00:00,318.0,310.0,5.84,7.47,,47.59359,-54.27349
2018-12-24 08:50:00+00:00,321.0,325.0,6.64,7.92,,47.59359,-54.27349
2018-12-24 09:00:00+00:00,313.0,313.0,6.23,7.7,,47.59359,-54.27349
2018-12-24 09:10:00+00:00,309.0,325.0,8.28,9.18,,47.59359,-54.27349
2018-12-24 09:20:00+00:00,313.0,308.0,6.94,8.24,,47.59359,-54.27349
2018-12-24 09:30:00+00:00,308.0,302.0,6.5,8.79,,47.59359,-54.27349
2018-12-24 09:40:00+00:00,317.0,309.0,6.22,7.72,,47.59359,-54.27349
2018-12-24 09:50:00+00:00,328.0,327.0,6.68,8.19,,47.59359,-54.27349
2018-12-24 10:00:00+00:00,315.0,317.0,5.86,7.16,,47.59359,-54.27349
2018-12-24 10:10:00+00:00,308.0,302.0,6.25,7.58,,47.59359,-54.27349
2018-12-24 10:20:00+00:00,308.0,318.0,7.9,9.32,,47.59359,-54.27349
2018-12-24 10:30:00+00:00,313.0,312.0,8.18,9.78,,47.59359,-54.27349
2018-12-24 10:40:00+00:00,323.0,323.0,7.32,8.6,,47.59359,-54.27349
2018-12-24 10:50:00+00:00,317.0,310.0,7.56,8.92,,47.59359,-54.27349
2018-12-24 11:00:00+00:00,305.0,305.0,4.67,6.55,,47.59359,-54.27349
2018-12-24 11:10:00+00:00,312.0,315.0,4.71,5.53,,47.59359,-54.27349
2018-12-24 11:20:00+00:00,296.0,286.0,4.52,5.62,,47.59359,-54.27349
2018-12-24 11:30:00+00:00,299.0,297.0,5.18,6.38,,47.59359,-54.27349
2018-12-24 11:40:00+00:00,316.0,312.0,4.59,6.13,,47.59359,-54.27349
2018-12-24 11:50:00+00:00,297.0,305.0,4.09,5.19,,47.59359,-54.27349
2018-12-24 12:00:00+00:00,290.0,297.0,5.52,6.41,,47.59359,-54.27349
2018-12-24 12:10:00+00:00,288.0,283.0,5.17,6.36,,47.59359,-54.27349
2018-12-24 12:20:00+00:00,295.0,300.0,4.61,5.36,,47.59359,-54.27349
2018-12-24 12:30:00+00:00,302.0,305.0,5.02,5.92,,47.59359,-54.27349
2018-12-24 12:40:00+00:00,314.0,305.0,3.4,4.61,,47.59359,-54.27349
2018-12-24 12:50:00+00:00,305.0,302.0,5.6,6.48,,47.59359,-54.27349
2018-12-24 13:00:00+00:00,286.0,288.0,5.23,6.9,,47.59359,-54.27349
2018-12-24 13:10:00+00:00,295.0,292.0,6.07,7.83,,47.59359,-54.27349
2018-12-24 13:20:00+00:00,303.0,303.0,6.47,7.56,,47.59359,-54.27349
2018-12-24 13:30:00+00:00,303.0,308.0,5.73,8.1,,47.59359,-54.27349
2018-12-24 13:40:00+00:00,311.0,304.0,6.98,8.09,,47.59359,-54.27349
2018-12-24 13:50:00+00:00,304.0,300.0,6.5,7.87,,47.59359,-54.27349
2018-12-24 14:00:00+00:00,299.0,298.0,7.96,9.44,,47.59359,-54.27349
2018-12-24 14:10:00+00:00,300.0,295.0,5.46,7.52,,47.59359,-54.27349
2018-12-24 14:20:00+00:00,309.0,307.0,7.73,8.92,,47.59359,-54.27349
2018-12-24 14:30:00+00:00,323.0,321.0,7.36,8.71,,47.59359,-54.27349
2018-12-24 14:40:00+00:00,317.0,313.0,5.91,7.14,,47.59359,-54.27349
2018-12-24 14:50:00+00:00,309.0,304.0,6.9,8.12,,47.59359,-54.27349
2018-12-24 15:00:00+00:00,309.0,310.0,7.98,9.48,,47.59359,-54.27349
2018-12-24 15:10:00+00:00,321.0,322.0,6.13,7.63,,47.59359,-54.27349
2018-12-24 15:20:00+00:00,299.0,301.0,4.42,5.48,,47.59359,-54.27349
2018-12-24 15:30:00+00:00,286.0,282.0,6.87,8.57,,47.59359,-54.27349
2018-12-24 15:40:00+00:00,291.0,291.0,8.56,9.38,,47.59359,-54.27349
2018-12-24 15:50:00+00:00,302.0,309.0,7.66,9.07,,47.59359,-54.27349
2018-12-24 16:00:00+00:00,314.0,307.0,5.31,6.4,,47.59359,-54.27349
2018-12-24 16:10:00+00:00,313.0,320.0,4.49,5.31,,47.59359,-54.27349
2018-12-24 16:20:00+00:00,314.0,313.0,6.07,7.94,,47.59359,-54.27349
2018-12-24 16:30:00+00:00,296.0,299.0,4.96,5.81,,47.59359,-54.27349
2018-12-24 16:40:00+00:00,297.0,299.0,7.88,9.46,,47.59359,-54.27349
2018-12-24 16:50:00+00:00,290.0,294.0,6.82,8.23,,47.59359,-54.27349
2018-12-24 17:00:00+00:00,294.0,301.0,6.2,7.34,,47.59359,-54.27349
2018-12-24 17:10:00+00:00,311.0,314.0,6.1,7.91,,47.59359,-54.27349
2018-12-24 17:20:00+00:00,304.0,302.0,6.65,7.91,,47.59359,-54.27349
2018-12-24 17:30:00+00:00,311.0,313.0,5.05,7.15,,47.59359,-54.27349
2018-12-24 17:40:00+00:00,278.0,282.0,8.65,9.79,,47.59359,-54.27349
2018-12-24 17:50:00+00:00,273.0,274.0,7.45,8.7,,47.59359,-54.27349
2018-12-24 18:00:00+00:00,279.0,282.0,7.98,8.87,,47.59359,-54.27349
2018-12-24 18:10:00+00:00,266.0,274.0,8.07,9.4,,47.59359,-54.27349
2018-12-24 18:20:00+00:00,284.0,287.0,7.99,9.03,,47.59359,-54.27349
2018-12-24 18:30:00+00:00,290.0,296.0,7.23,8.45,,47.59359,-54.27349
2018-12-24 18:40:00+00:00,271.0,272.0,7.47,8.78,,47.59359,-54.27349
2018-12-24 18:50:00+00:00,269.0,267.0,7.65,8.6,,47.59359,-54.27349
2018-12-24 19:00:00+00:00,278.0,278.0,7.2,7.99,,47.59359,-54.27349
2018-12-24 19:10:00+00:00,280.0,282.0,8.03,9.07,,47.59359,-54.27349
2018-12-24 19:20:00+00:00,276.0,285.0,7.18,8.61,,47.59359,-54.27349
2018-12-24 19:30:00+00:00,277.0,274.0,7.81,8.51,,47.59359,-54.27349
2018-12-24 19:40:00+00:00,286.0,292.0,7.6,9.01,,47.59359,-54.27349
2018-12-24 19:50:00+00:00,284.0,290.0,5.9,8.12,,47.59359,-54.27349
2018-12-24 20:00:00+00:00,281.0,282.0,7.9,8.39,,47.59359,-54.27349
2018-12-24 20:10:00+00:00,277.0,278.0,7.48,8.5,,47.59359,-54.27349
2018-12-24 20:20:00+00:00,281.0,285.0,7.69,8.6,,47.59359,-54.27349
2018-12-24 20:30:00+00:00,289.0,286.0,5.93,7.67,,47.59359,-54.27349
2018-12-24 20:40:00+00:00,281.0,283.0,6.65,7.92,,47.59359,-54.27349
2018-12-24 20:50:00+00:00,283.0,277.0,5.87,7.3,,47.59359,-54.27349
2018-12-24 21:00:00+00:00,292.0,297.0,6.4,7.85,,47.59359,-54.27349
2018-12-24 21:10:00+00:00,285.0,293.0,6.46,7.4,,47.59359,-54.27349
2018-12-24 21:20:00+00:00,299.0,297.0,6.67,7.72,,47.59359,-54.27349
2018-12-24 21:30:00+00:00,306.0,304.0,5.79,6.64,,47.59359,-54.27349
2018-12-24 21:40:00+00:00,339.0,340.0,3.79,4.89,,47.59359,-54.27349
2018-12-24 21:50:00+00:00,304.0,307.0,3.02,3.5,,47.59359,-54.27349
2018-12-24 22:00:00+00:00,306.0,308.0,4.75,5.52,,47.59359,-54.27349
2018-12-24 22:10:00+00:00,302.0,312.0,3.42,4.34,,47.59359,-54.27349
2018-12-24 22:20:00+00:00,328.0,328.0,4.04,5.11,,47.59359,-54.27349
2018-12-24 22:30:00+00:00,316.0,309.0,4.27,5.45,,47.59359,-54.27349
2018-12-24 22:40:00+00:00,329.0,326.0,4.38,5.49,,47.59359,-54.27349
2018-12-24 22:50:00+00:00,330.0,332.0,3.99,5.02,,47.59359,-54.27349
2018-12-24 23:00:00+00:00,328.0,331.0,4.3,5.17,,47.59359,-54.27349
2018-12-24 23:10:00+00:00,329.0,333.0,4.84,5.59,,47.59359,-54.27349
2018-12-24 23:20:00+00:00,327.0,328.0,4.27,5.52,,47.59359,-54.27349
2018-12-24 23:30:00+00:00,324.0,323.0,6.38,7.48,,47.59359,-54.27349
2018-12-24 23:40:00+00:00,329.0,333.0,4.54,5.22,,47.59359,-54.27349
2018-12-24 23:50:00+00:00,317.0,318.0,6.23,6.8,,47.59359,-54.27349
